N3819L KCOS-KCOS

Flight info

Callsign N3819L
Flight time 0h 13m
Altitude VFR
Route PATTERN
Aircraft

Departure

Time 2026-05-07 01:10
Airport City of Colorado Springs Municipal Airport (KCOS)

Arrival

Time 2026-05-07 01:24
Airport City of Colorado Springs Municipal Airport (KCOS)
Time Latitude Longitude Altitude Speed Heading
2026-05-07 00:57 38.80043 -104.70299 6189 ft 0 kts 110°
2026-05-07 01:01 38.80043 -104.70298 6179 ft 2 kts 109°
2026-05-07 01:01 38.80065 -104.70289 6189 ft 8 kts 325°
2026-05-07 01:01 38.80076 -104.70371 6189 ft 12 kts 271°
2026-05-07 01:02 38.80132 -104.70436 6189 ft 13 kts
2026-05-07 01:02 38.80219 -104.70437 6189 ft 13 kts
2026-05-07 01:02 38.80322 -104.70436 6189 ft 14 kts 354°
2026-05-07 01:02 38.80363 -104.70542 6189 ft 17 kts 266°
2026-05-07 01:03 38.80363 -104.70716 6188 ft 21 kts 270°
2026-05-07 01:03 38.80363 -104.70901 6188 ft 20 kts 267°
2026-05-07 01:03 38.80363 -104.71066 6188 ft 18 kts 269°
2026-05-07 01:03 38.80363 -104.71227 6188 ft 18 kts 271°
2026-05-07 01:04 38.80409 -104.71349 6188 ft 16 kts 356°
2026-05-07 01:04 38.80454 -104.71348 6188 ft 0 kts 359°
2026-05-07 01:04 38.80469 -104.71349 6188 ft 7 kts 355°
2026-05-07 01:04 38.80546 -104.71347 6189 ft 16 kts 359°
2026-05-07 01:05 38.80679 -104.71347 6189 ft 23 kts 359°
2026-05-07 01:05 38.80862 -104.71348 6189 ft 30 kts
2026-05-07 01:05 38.81073 -104.71346 6189 ft 30 kts
2026-05-07 01:05 38.81270 -104.71345 6188 ft 27 kts
2026-05-07 01:06 38.81446 -104.71344 6188 ft 24 kts 358°
2026-05-07 01:06 38.81600 -104.71345 6188 ft 21 kts
2026-05-07 01:06 38.81733 -104.71346 6188 ft 17 kts
2026-05-07 01:06 38.81844 -104.71345 6188 ft 15 kts 359°
2026-05-07 01:07 38.81950 -104.71346 6188 ft 15 kts 359°
2026-05-07 01:07 38.82038 -104.71345 6189 ft 0 kts 359°
2026-05-07 01:07 38.82040 -104.71345 6189 ft 2 kts 359°
2026-05-07 01:08 38.82084 -104.71343 6190 ft 11 kts 356°
2026-05-07 01:08 38.82147 -104.71346 6191 ft 5 kts
2026-05-07 01:08 38.82215 -104.71345 6192 ft 15 kts
2026-05-07 01:08 38.82345 -104.71347 6189 ft 15 kts 356°
2026-05-07 01:09 38.82397 -104.71395 6189 ft 11 kts 286°
2026-05-07 01:09 38.82398 -104.71461 6190 ft 5 kts 271°
2026-05-07 01:09 38.82391 -104.71535 6191 ft 12 kts 250°
2026-05-07 01:09 38.82297 -104.71593 6191 ft 24 kts 183°
2026-05-07 01:10 38.81923 -104.71591 6189 ft 82 kts 180°
2026-05-07 01:10 38.81193 -104.71588 6254 ft 122 kts 179°
2026-05-07 01:10 38.80307 -104.71576 6604 ft 130 kts 183°
2026-05-07 01:10 38.79367 -104.71591 6950 ft 141 kts 181°
2026-05-07 01:11 38.78473 -104.71896 7521 ft 128 kts 215°
2026-05-07 01:11 38.78027 -104.72870 7865 ft 138 kts 265°
2026-05-07 01:11 38.78431 -104.73994 8132 ft 152 kts 301°
2026-05-07 01:11 38.79143 -104.75120 8163 ft 170 kts 318°
2026-05-07 01:12 38.80228 -104.75803 8181 ft 184 kts 344°
2026-05-07 01:12 38.81532 -104.75707 8123 ft 193 kts 15°
2026-05-07 01:12 38.82806 -104.75158 8044 ft 193 kts 19°
2026-05-07 01:12 38.84066 -104.74562 7974 ft 193 kts 19°
2026-05-07 01:13 38.85120 -104.73657 7943 ft 174 kts 61°
2026-05-07 01:13 38.85020 -104.72364 7672 ft 141 kts 135°
2026-05-07 01:13 38.84183 -104.71743 7046 ft 137 kts 165°
2026-05-07 01:13 38.83278 -104.71583 6617 ft 120 kts 181°
2026-05-07 01:14 38.82548 -104.71584 6275 ft 93 kts 184°
2026-05-07 01:14 38.82010 -104.71596 6190 ft 64 kts 182°
2026-05-07 01:14 38.81538 -104.71591 6187 ft 88 kts 180°
2026-05-07 01:14 38.80790 -104.71586 6311 ft 120 kts 181°
2026-05-07 01:15 38.79959 -104.71587 6832 ft 119 kts 183°
2026-05-07 01:15 38.79086 -104.71590 7156 ft 134 kts 183°
2026-05-07 01:15 38.78135 -104.71625 7485 ft 141 kts 185°
2026-05-07 01:15 38.77271 -104.72108 7840 ft 140 kts 233°
2026-05-07 01:16 38.77149 -104.73399 7862 ft 161 kts 278°
2026-05-07 01:16 38.77444 -104.74812 8038 ft 167 kts 298°
2026-05-07 01:16 38.78389 -104.75598 8251 ft 173 kts 353°
2026-05-07 01:16 38.79633 -104.75575 8263 ft 182 kts 359°
2026-05-07 01:17 38.80806 -104.75523 8246 ft 159 kts
2026-05-07 01:17 38.81865 -104.75403 8077 ft 151 kts
2026-05-07 01:17 38.82888 -104.75216 7920 ft 145 kts
2026-05-07 01:17 38.83808 -104.74848 7883 ft 133 kts 36°
2026-05-07 01:18 38.84255 -104.73863 7770 ft 129 kts 72°
2026-05-07 01:18 38.84395 -104.72771 7698 ft 118 kts 105°
2026-05-07 01:18 38.83956 -104.71887 7383 ft 125 kts 141°
2026-05-07 01:18 38.83222 -104.71546 6862 ft 107 kts 181°
2026-05-07 01:19 38.82499 -104.71571 6302 ft 98 kts 184°
2026-05-07 01:19 38.81919 -104.71593 6189 ft 67 kts 186°
2026-05-07 01:19 38.81387 -104.71595 6187 ft 99 kts 180°
2026-05-07 01:19 38.80586 -104.71585 6407 ft 121 kts 179°
2026-05-07 01:20 38.79751 -104.71567 6975 ft 117 kts 181°
2026-05-07 01:20 38.78960 -104.71543 7499 ft 114 kts 188°
2026-05-07 01:20 38.78504 -104.72230 7856 ft 119 kts 264°
2026-05-07 01:20 38.78495 -104.73365 8141 ft 129 kts 287°
2026-05-07 01:21 38.79221 -104.73973 8325 ft 154 kts 352°
2026-05-07 01:21 38.80410 -104.73875 8179 ft 173 kts 358°
2026-05-07 01:21 38.81591 -104.73853 8161 ft 174 kts 358°
2026-05-07 01:21 38.82832 -104.73841 8142 ft 187 kts 358°
2026-05-07 01:22 38.84090 -104.73804 8179 ft 160 kts 359°
2026-05-07 01:22 38.85009 -104.73488 8247 ft 125 kts 47°
2026-05-07 01:22 38.85250 -104.72400 7792 ft 132 kts 103°
2026-05-07 01:22 38.84718 -104.71692 7414 ft 107 kts 168°
2026-05-07 01:23 38.83992 -104.71567 6976 ft 100 kts 180°
2026-05-07 01:23 38.83303 -104.71571 6621 ft 97 kts 184°
2026-05-07 01:23 38.82640 -104.71581 6298 ft 94 kts 183°
2026-05-07 01:23 38.82049 -104.71587 6191 ft 71 kts 182°
2026-05-07 01:24 38.81633 -104.71597 6187 ft 52 kts 178°
2026-05-07 01:24 38.81323 -104.71594 6187 ft 39 kts 176°
2026-05-07 01:24 38.81049 -104.71589 6189 ft 41 kts 182°
2026-05-07 01:24 38.80762 -104.71592 6190 ft 41 kts 179°
2026-05-07 01:25 38.80550 -104.71552 6190 ft 23 kts 163°
2026-05-07 01:25 38.80439 -104.71486 6189 ft 4 kts 150°
2026-05-07 01:28 38.80429 -104.71480 6188 ft 6 kts 151°
2026-05-07 01:28 38.80382 -104.71440 6188 ft 10 kts 137°
2026-05-07 01:28 38.80390 -104.71354 6188 ft 14 kts 14°
2026-05-07 01:29 38.80540 -104.71353 6189 ft 43 kts 358°
2026-05-07 01:29 38.81035 -104.71344 6189 ft 98 kts 356°